Regional Weather Roundup
Issued by NWS

Home | Current Version | Previous Version | Graphics & Text | Print | Product List | Glossary On
Versions: 1 2 3 4 5 6 7 8 9 10 11 12 13 14 15 16 17 18 19 20 21 22 23 24 25 26 27 28 29 30 31 32 33 34 35 36 37 38 39 40 41 42 43 44 45 46 47 48 49 50
742
ASUS44 KLIX 241610
RWRLA
LOUISIANA WEATHER ROUNDUP
NATIONAL WEATHER SERVICE NEW ORLEANS LA
1100 AM CDT FRI OCT 24 2014

NOTE: "FAIR" INDICATES FEW OR NO CLOUDS BELOW 12,000 FEET WITH NO
      SIGNIFICANT WEATHER AND/OR OBSTRUCTIONS TO VISIBILITY.
      SKY/WX - SKY CONDITION AND SIGNIFICANT WEATHER.
      TMP - AIR TEMPERATURE.    DP   - DEWPOINT TEMPERATURE.
      RH  - RELATIVE HUMIDITY.  PRES - PRESSURE.
      HX  - HEAT INDEX.         WCI  - WIND CHILL INDEX.

*  THESE STATIONS ARE NOT NWS OR FAA STATIONS AND ARE NOT UNDER
   NWS QUALITY CONTROL.

LAZ040-048-061>063-065-066-069-241700-
SOUTHEAST LOUISIANA

CITY           SKY/WX    TMP DP  RH WIND       PRES   REMARKS
N.O. AUDUBON     N/A     73  53  48 MISG        N/A
N.O. INTL ARPT MOSUNNY   69  52  54 N7        30.12S
N.O. LAKEFRONT SUNNY     68  51  54 NE5       30.12F
N.O. DOWNTOWN* FAIR      70  46  43 N6        30.12F
SLIDELL        SUNNY     68  50  52 VRB3      30.12S
BATON ROUGE    SUNNY     67  49  52 N5        30.14F
BOOTHVILLE     SUNNY     72  54  53 VRB6      30.11S
BELLE CHASSE   MOSUNNY   72  53  51 VRB3      30.11F
BOGALUSA*        N/A     68  47  46 NE6       30.14S
NEW ROADS*     FAIR      64  52  66 NW3       30.15S
GONZALES*      FAIR      67  52  58 CALM      30.13S
HAMMOND*       SUNNY     70  46  43 N5        30.14F
HOUMA*         SUNNY     70  52  52 N8        30.12S
PORT FOURCHON* SUNNY     72  54  53 NE8       30.14S

$$

LAZ041-044-053-054-241700-
SOUTHWEST LOUISIANA

CITY           SKY/WX    TMP DP  RH WIND       PRES   REMARKS
LAKE CHARLES   SUNNY     67  51  56 NE7       30.16S
LAFAYETTE      SUNNY     66  52  60 N5        30.15F
PATTERSON      SUNNY     68  54  60 N5        30.16S
SALT POINT       N/A     70  55  59 VRB3      30.12F
NEW IBERIA     SUNNY     67  52  58 N6        30.15F
CHENAULT AIRPK SUNNY     64  52  63 N6        30.17R

$$

LAZ027-028-241700-
CENTRAL LOUISIANA

CITY           SKY/WX    TMP DP  RH WIND       PRES   REMARKS
FORT POLK      SUNNY     64  49  57 N6        30.17R
ALEXANDRIA INT SUNNY     64  51  62 CALM      30.16S
ALEXANDRIA     SUNNY     64  52  64 E5        30.18R

$$

LAZ001-002-241700-
NORTHWEST LOUISIANA

CITY           SKY/WX    TMP DP  RH WIND       PRES   REMARKS
SHREVEPORT     SUNNY     65  51  60 CALM      30.19S
BARKSDALE AFB  SUNNY     65  49  56 CALM      30.19S
DTN SHREVEPORT SUNNY     64  50  60 CALM      30.19S

$$

LAZ014-016-241700-
NORTHEAST LOUISIANA

CITY           SKY/WX    TMP DP  RH WIND       PRES   REMARKS
MONROE         SUNNY     63  49  60 N6        30.20S
TALLULAH       SUNNY     63  49  60 N8        30.19R

$$




USA.gov is the U.S. government's official web portal to all federal, state and local government web resources and services.